"datetime","temp","dp","rain_mm","uv","mb"
"2024-03-28 00:00:00",8.6,7.2,0.0,0.0,973.2
"2024-03-28 00:01:00",8.6,7.2,0.0,0.0,973.2
"2024-03-28 00:02:00",8.6,7.2,0.0,0.0,973.2
"2024-03-28 00:03:00",8.6,7.2,0.0,0.0,973.1
"2024-03-28 00:04:00",8.5,7.1,0.2,0.0,973.1
"2024-03-28 00:05:00",8.5,7.1,0.2,0.0,973.1
"2024-03-28 00:06:00",8.5,7.1,0.2,0.0,973.2
"2024-03-28 00:07:00",8.5,7.1,0.2,0.0,973.2
"2024-03-28 00:08:00",8.4,7.0,0.2,0.0,973.2
"2024-03-28 00:09:00",8.4,7.0,0.2,0.0,973.2
"2024-03-28 00:10:00",8.4,7.2,0.2,0.0,973.2
"2024-03-28 00:11:00",8.4,7.2,0.2,0.0,973.1
"2024-03-28 00:12:00",8.4,7.2,0.2,0.0,973.2
"2024-03-28 00:13:00",8.4,7.2,0.4,0.0,973.2
"2024-03-28 00:14:00",8.4,7.2,0.4,0.0,973.2
"2024-03-28 00:15:00",8.4,7.2,0.4,0.0,973.3
"2024-03-28 00:16:00",8.4,7.2,0.4,0.0,973.2
"2024-03-28 00:17:00",8.4,7.2,0.6,0.0,973.1
"2024-03-28 00:18:00",8.4,7.2,0.6,0.0,973.0
"2024-03-28 00:19:00",8.4,7.2,0.6,0.0,973.1
"2024-03-28 00:20:00",8.3,7.1,0.6,0.0,973.2
"2024-03-28 00:21:00",8.3,7.1,0.8,0.0,973.0
"2024-03-28 00:22:00",8.3,7.1,0.8,0.0,973.0
"2024-03-28 00:23:00",8.3,7.1,0.8,0.0,973.0
"2024-03-28 00:24:00",8.3,7.1,0.8,0.0,973.0
"2024-03-28 00:25:00",8.3,7.1,1.0,0.0,973.1
"2024-03-28 00:26:00",8.3,7.1,1.0,0.0,972.9
"2024-03-28 00:27:00",8.3,7.1,1.0,0.0,972.9
"2024-03-28 00:28:00",8.3,7.1,1.2,0.0,972.9
"2024-03-28 00:29:00",8.2,7.0,1.2,0.0,972.9
"2024-03-28 00:30:00",8.2,7.0,1.2,0.0,972.8
"2024-03-28 00:31:00",8.2,7.0,1.4,0.0,972.8
"2024-03-28 00:32:00",8.2,7.0,1.4,0.0,972.9
"2024-03-28 00:33:00",8.2,7.1,1.6,0.0,972.9
"2024-03-28 00:34:00",8.2,7.1,1.6,0.0,972.7
"2024-03-28 00:35:00",8.2,7.1,1.8,0.0,972.7
"2024-03-28 00:36:00",8.2,7.1,1.8,0.0,972.8
"2024-03-28 00:37:00",8.2,7.1,1.8,0.0,972.7
"2024-03-28 00:38:00",8.2,7.1,2.0,0.0,972.8
"2024-03-28 00:39:00",8.2,7.1,2.0,0.0,972.7
"2024-03-28 00:40:00",8.1,7.0,2.2,0.0,972.7
"2024-03-28 00:41:00",8.1,7.0,2.2,0.0,972.5
"2024-03-28 00:42:00",8.1,7.0,2.2,0.0,972.6
"2024-03-28 00:43:00",8.1,6.9,2.4,0.0,972.5
"2024-03-28 00:44:00",8.1,6.9,2.4,0.0,972.5
"2024-03-28 00:45:00",8.0,6.8,2.6,0.0,972.6
"2024-03-28 00:46:00",7.9,6.7,2.6,0.0,972.6
"2024-03-28 00:47:00",7.9,6.8,2.6,0.0,972.4
"2024-03-28 00:48:00",7.9,6.7,2.8,0.0,972.4
"2024-03-28 00:49:00",7.9,6.8,2.8,0.0,972.4
"2024-03-28 00:50:00",7.8,6.7,3.0,0.0,972.4
"2024-03-28 00:51:00",7.8,6.7,3.0,0.0,972.4
"2024-03-28 00:52:00",7.8,6.7,3.0,0.0,972.3
"2024-03-28 00:53:00",7.8,6.7,3.0,0.0,972.3
"2024-03-28 00:54:00",7.8,6.7,3.2,0.0,972.3
"2024-03-28 00:55:00",7.8,6.7,3.2,0.0,972.2
"2024-03-28 00:56:00",7.8,6.7,3.2,0.0,972.2
"2024-03-28 00:57:00",7.8,6.7,3.4,0.0,972.2
"2024-03-28 00:58:00",7.8,6.7,3.4,0.0,972.3
"2024-03-28 00:59:00",7.8,6.7,3.4,0.0,972.4
"2024-03-28 01:00:00",7.8,6.7,3.6,0.0,972.2
"2024-03-28 01:01:00",7.8,6.7,3.6,0.0,972.2
"2024-03-28 01:02:00",7.7,6.6,3.6,0.0,972.2
"2024-03-28 01:03:00",7.7,6.6,3.6,0.0,972.1
"2024-03-28 01:04:00",7.7,6.6,3.8,0.0,972.2
"2024-03-28 01:05:00",7.7,6.6,3.8,0.0,972.2
"2024-03-28 01:06:00",7.7,6.6,3.8,0.0,972.1
"2024-03-28 01:07:00",7.7,6.6,3.8,0.0,972.1
"2024-03-28 01:08:00",7.7,6.6,3.8,0.0,972.0
"2024-03-28 01:09:00",7.7,6.6,4.0,0.0,972.0
"2024-03-28 01:10:00",7.7,6.6,4.0,0.0,971.9
"2024-03-28 01:11:00",7.7,6.6,4.0,0.0,971.9
"2024-03-28 01:12:00",7.7,6.6,4.0,0.0,971.8
"2024-03-28 01:13:00",7.7,6.6,4.0,0.0,971.8
"2024-03-28 01:14:00",7.6,6.5,4.2,0.0,971.7
"2024-03-28 01:15:00",7.6,6.5,4.2,0.0,971.7
"2024-03-28 01:16:00",7.6,6.5,4.2,0.0,971.6
"2024-03-28 01:17:00",7.6,6.5,4.2,0.0,971.6
"2024-03-28 01:18:00",7.6,6.5,4.4,0.0,971.5
"2024-03-28 01:19:00",7.6,6.5,4.4,0.0,971.5
"2024-03-28 01:20:00",7.6,6.5,4.4,0.0,971.4
"2024-03-28 01:21:00",7.6,6.5,4.4,0.0,971.3
"2024-03-28 01:22:00",7.6,6.5,4.6,0.0,971.2
"2024-03-28 01:23:00",7.6,6.5,4.6,0.0,971.2
"2024-03-28 01:24:00",7.6,6.5,4.6,0.0,971.2
"2024-03-28 01:25:00",7.6,6.5,4.6,0.0,971.2
"2024-03-28 01:26:00",7.5,6.4,4.8,0.0,971.2
"2024-03-28 01:27:00",7.6,6.5,4.8,0.0,971.1
"2024-03-28 01:28:00",7.5,6.4,4.8,0.0,971.1
"2024-03-28 01:29:00",7.6,6.5,4.8,0.0,971.1
"2024-03-28 01:30:00",7.5,6.4,4.8,0.0,971.2
"2024-03-28 01:31:00",7.5,6.4,5.0,0.0,971.1
"2024-03-28 01:32:00",7.6,6.5,5.0,0.0,971.1
"2024-03-28 01:33:00",7.5,6.4,5.0,0.0,971.0
"2024-03-28 01:34:00",7.5,6.4,5.0,0.0,971.0
"2024-03-28 01:35:00",7.5,6.4,5.0,0.0,970.9
"2024-03-28 01:36:00",7.5,6.4,5.0,0.0,970.9
"2024-03-28 01:37:00",7.5,6.4,5.2,0.0,970.8
"2024-03-28 01:38:00",7.5,6.4,5.2,0.0,970.9
"2024-03-28 01:39:00",7.5,6.4,5.2,0.0,970.9
"2024-03-28 01:40:00",7.5,6.4,5.2,0.0,970.8
"2024-03-28 01:41:00",7.5,6.4,5.4,0.0,970.8
"2024-03-28 01:42:00",7.5,6.4,5.4,0.0,970.9
"2024-03-28 01:43:00",7.5,6.4,5.4,0.0,970.8
"2024-03-28 01:44:00",7.5,6.4,5.6,0.0,970.9
"2024-03-28 01:45:00",7.5,6.4,5.6,0.0,970.9
"2024-03-28 01:46:00",7.5,6.4,5.6,0.0,970.8
"2024-03-28 01:47:00",7.5,6.4,5.8,0.0,970.8
"2024-03-28 01:48:00",7.5,6.4,5.8,0.0,970.7
"2024-03-28 01:49:00",7.5,6.4,5.8,0.0,970.8
"2024-03-28 01:50:00",7.5,6.4,6.0,0.0,970.7
"2024-03-28 01:51:00",7.5,6.6,6.0,0.0,970.7
"2024-03-28 01:52:00",7.5,6.6,6.2,0.0,970.6
"2024-03-28 01:53:00",7.5,6.6,6.2,0.0,970.6
"2024-03-28 01:54:00",7.5,6.6,6.2,0.0,970.6
"2024-03-28 01:55:00",7.5,6.6,6.4,0.0,970.6
"2024-03-28 01:56:00",7.5,6.6,6.4,0.0,970.6
"2024-03-28 01:57:00",7.5,6.6,6.6,0.0,970.5
"2024-03-28 01:58:00",7.5,6.6,6.6,0.0,970.6
"2024-03-28 01:59:00",7.6,6.7,6.6,0.0,970.6
"2024-03-28 02:00:00",7.6,6.7,6.8,0.0,970.6
"2024-03-28 02:01:00",7.6,6.7,6.8,0.0,970.6
"2024-03-28 02:02:00",7.6,6.7,7.0,0.0,970.6
"2024-03-28 02:03:00",7.6,6.7,7.0,0.0,970.6
"2024-03-28 02:04:00",7.6,6.7,7.0,0.0,970.6
"2024-03-28 02:05:00",7.6,6.7,7.2,0.0,970.7
"2024-03-28 02:06:00",7.6,6.7,7.4,0.0,970.8
"2024-03-28 02:07:00",7.6,6.7,7.4,0.0,970.9
"2024-03-28 02:08:00",7.6,6.7,7.6,0.0,971.0
"2024-03-28 02:09:00",7.6,6.7,7.6,0.0,971.1
"2024-03-28 02:10:00",7.6,6.7,7.6,0.0,971.0
"2024-03-28 02:11:00",7.6,6.7,7.6,0.0,971.1
"2024-03-28 02:12:00",7.6,6.7,7.8,0.0,971.1
"2024-03-28 02:13:00",7.6,6.7,7.8,0.0,971.2
"2024-03-28 02:14:00",7.6,6.7,7.8,0.0,971.1
"2024-03-28 02:15:00",7.6,6.7,7.8,0.0,971.1
"2024-03-28 02:16:00",7.6,6.7,7.8,0.0,971.1
"2024-03-28 02:17:00",7.6,6.7,7.8,0.0,971.0
"2024-03-28 02:18:00",7.6,6.7,8.0,0.0,971.0
"2024-03-28 02:19:00",7.6,6.7,8.0,0.0,971.0
"2024-03-28 02:20:00",7.6,6.7,8.0,0.0,970.9
"2024-03-28 02:21:00",7.6,6.7,8.0,0.0,970.9
"2024-03-28 02:22:00",7.6,6.7,8.0,0.0,970.9
"2024-03-28 02:23:00",7.6,6.7,8.0,0.0,970.9
"2024-03-28 02:24:00",7.6,6.7,8.0,0.0,970.9
"2024-03-28 02:25:00",7.6,6.7,8.0,0.0,971.0
"2024-03-28 02:26:00",7.6,6.7,8.0,0.0,971.0
"2024-03-28 02:27:00",7.6,6.7,8.0,0.0,971.1
"2024-03-28 02:28:00",7.5,6.6,8.0,0.0,971.1
"2024-03-28 02:29:00",7.6,6.7,8.0,0.0,971.2
"2024-03-28 02:30:00",7.5,6.6,8.0,0.0,971.3
"2024-03-28 02:31:00",7.5,6.6,8.0,0.0,971.3
"2024-03-28 02:32:00",7.4,6.5,8.0,0.0,971.4
"2024-03-28 02:33:00",7.4,6.5,8.0,0.0,971.4
"2024-03-28 02:34:00",7.4,6.5,8.0,0.0,971.4
"2024-03-28 02:35:00",7.3,6.4,8.0,0.0,971.5
"2024-03-28 02:36:00",7.3,6.4,8.0,0.0,971.5
"2024-03-28 02:37:00",7.3,6.4,8.0,0.0,971.5
"2024-03-28 02:38:00",7.3,6.4,8.0,0.0,971.5
"2024-03-28 02:39:00",7.2,6.3,8.0,0.0,971.6
"2024-03-28 02:40:00",7.2,6.3,8.0,0.0,971.6
"2024-03-28 02:41:00",7.1,6.2,8.0,0.0,971.7
"2024-03-28 02:42:00",7.1,6.2,8.0,0.0,971.7
"2024-03-28 02:43:00",7.1,6.2,8.0,0.0,971.7
"2024-03-28 02:44:00",7.0,6.1,8.0,0.0,971.7
"2024-03-28 02:45:00",7.0,6.1,8.0,0.0,971.6
"2024-03-28 02:46:00",6.9,6.0,8.0,0.0,971.7
"2024-03-28 02:47:00",6.8,5.7,8.0,0.0,971.7
"2024-03-28 02:48:00",6.8,5.7,8.0,0.0,971.7
"2024-03-28 02:49:00",6.8,5.7,8.0,0.0,971.7
"2024-03-28 02:50:00",6.7,5.6,8.0,0.0,971.8
"2024-03-28 02:51:00",6.7,5.6,8.0,0.0,971.8
"2024-03-28 02:52:00",6.6,5.5,8.0,0.0,971.7
"2024-03-28 02:53:00",6.6,5.5,8.0,0.0,971.7
"2024-03-28 02:54:00",6.6,5.5,8.0,0.0,971.6
"2024-03-28 02:55:00",6.5,5.4,8.0,0.0,971.5
"2024-03-28 02:56:00",6.5,5.4,8.0,0.0,971.5
"2024-03-28 02:57:00",6.4,5.4,8.0,0.0,971.5
"2024-03-28 02:58:00",6.4,5.4,8.0,0.0,971.7
"2024-03-28 02:59:00",6.4,5.4,8.0,0.0,971.7
"2024-03-28 03:00:00",6.3,5.3,8.0,0.0,971.8
"2024-03-28 03:01:00",6.3,5.3,8.0,0.0,971.8
"2024-03-28 03:02:00",6.3,5.3,8.0,0.0,971.8
"2024-03-28 03:03:00",6.3,5.3,8.0,0.0,971.8
"2024-03-28 03:04:00",6.3,5.3,8.0,0.0,971.8
"2024-03-28 03:05:00",6.3,5.3,8.0,0.0,971.9
"2024-03-28 03:06:00",6.3,5.3,8.0,0.0,972.0
"2024-03-28 03:07:00",6.2,5.2,8.0,0.0,972.0
"2024-03-28 03:08:00",6.2,5.2,8.0,0.0,972.1
"2024-03-28 03:09:00",6.2,5.2,8.0,0.0,972.1
"2024-03-28 03:10:00",6.2,5.2,8.0,0.0,972.1
"2024-03-28 03:11:00",6.2,5.2,8.0,0.0,972.2
"2024-03-28 03:12:00",6.1,5.1,8.0,0.0,972.2
"2024-03-28 03:13:00",6.1,5.1,8.0,0.0,972.2
"2024-03-28 03:14:00",6.1,5.1,8.0,0.0,972.3
"2024-03-28 03:15:00",6.1,5.1,8.0,0.0,972.4
"2024-03-28 03:16:00",6.0,5.0,8.0,0.0,972.4
"2024-03-28 03:17:00",6.0,5.0,8.0,0.0,972.5
"2024-03-28 03:18:00",5.9,4.9,8.0,0.0,972.6
"2024-03-28 03:19:00",5.9,4.9,8.0,0.0,972.7
"2024-03-28 03:20:00",5.9,4.9,8.0,0.0,972.8
"2024-03-28 03:21:00",5.9,4.9,8.0,0.0,972.8
"2024-03-28 03:22:00",5.8,4.8,8.0,0.0,972.8
"2024-03-28 03:23:00",5.8,4.8,8.0,0.0,972.8
"2024-03-28 03:24:00",5.8,4.8,8.0,0.0,972.9
"2024-03-28 03:25:00",5.8,4.8,8.0,0.0,973.0
"2024-03-28 03:26:00",5.7,4.7,8.0,0.0,973.0
"2024-03-28 03:27:00",5.7,4.7,8.0,0.0,973.0
"2024-03-28 03:28:00",5.7,4.7,8.0,0.0,973.1
"2024-03-28 03:29:00",5.7,4.7,8.0,0.0,973.2
"2024-03-28 03:30:00",5.7,4.7,8.0,0.0,973.2
"2024-03-28 03:31:00",5.7,4.7,8.0,0.0,973.3
"2024-03-28 03:32:00",5.7,4.7,8.0,0.0,973.4
"2024-03-28 03:33:00",5.6,4.6,8.0,0.0,973.3
"2024-03-28 03:34:00",5.6,4.6,8.0,0.0,973.4
"2024-03-28 03:35:00",5.6,4.6,8.0,0.0,973.4
"2024-03-28 03:36:00",5.6,4.6,8.0,0.0,973.4
"2024-03-28 03:37:00",5.6,4.6,8.0,0.0,973.4
"2024-03-28 03:38:00",5.6,4.6,8.0,0.0,973.5
"2024-03-28 03:39:00",5.5,4.5,8.0,0.0,973.5
"2024-03-28 03:40:00",5.5,4.5,8.0,0.0,973.4
"2024-03-28 03:41:00",5.4,4.4,8.0,0.0,973.5
"2024-03-28 03:42:00",5.4,4.4,8.0,0.0,973.4
"2024-03-28 03:43:00",5.4,4.4,8.0,0.0,973.4
"2024-03-28 03:44:00",5.4,4.4,8.0,0.0,973.5
"2024-03-28 03:45:00",5.3,4.3,8.0,0.0,973.5
"2024-03-28 03:46:00",5.3,4.3,8.0,0.0,973.5
"2024-03-28 03:47:00",5.3,4.3,8.0,0.0,973.5
"2024-03-28 03:48:00",5.3,4.3,8.0,0.0,973.5
"2024-03-28 03:49:00",5.3,4.3,8.0,0.0,973.5
"2024-03-28 03:50:00",5.3,4.3,8.0,0.0,973.6
"2024-03-28 03:51:00",5.3,4.3,8.0,0.0,973.6
"2024-03-28 03:52:00",5.3,4.3,8.0,0.0,973.5
"2024-03-28 03:53:00",5.3,4.3,8.0,0.0,973.5
"2024-03-28 03:54:00",5.2,4.2,8.0,0.0,973.5
"2024-03-28 03:55:00",5.2,4.2,8.0,0.0,973.5
"2024-03-28 03:56:00",5.2,4.2,8.0,0.0,973.5
"2024-03-28 03:57:00",5.2,4.2,8.0,0.0,973.5
"2024-03-28 03:58:00",5.2,4.2,8.0,0.0,973.5
"2024-03-28 03:59:00",5.2,4.2,8.0,0.0,973.6
"2024-03-28 04:00:00",5.2,4.2,8.0,0.0,973.6
"2024-03-28 04:01:00",5.1,4.1,8.0,0.0,973.6
"2024-03-28 04:02:00",5.1,4.1,8.0,0.0,973.7
"2024-03-28 04:03:00",5.1,4.1,8.0,0.0,973.7
"2024-03-28 04:04:00",5.1,4.1,8.0,0.0,973.7
"2024-03-28 04:05:00",5.1,4.1,8.0,0.0,973.6
"2024-03-28 04:06:00",5.1,4.1,8.0,0.0,973.7
"2024-03-28 04:07:00",5.0,4.0,8.0,0.0,973.6
"2024-03-28 04:08:00",5.0,4.0,8.0,0.0,973.7
"2024-03-28 04:09:00",4.9,3.9,8.0,0.0,973.8
"2024-03-28 04:10:00",4.9,3.9,8.0,0.0,973.8
"2024-03-28 04:11:00",4.9,3.9,8.0,0.0,973.8
"2024-03-28 04:12:00",4.9,3.9,8.0,0.0,973.7
"2024-03-28 04:13:00",4.9,3.9,8.0,0.0,973.8
"2024-03-28 04:14:00",4.9,3.9,8.0,0.0,973.8
"2024-03-28 04:15:00",4.9,3.9,8.0,0.0,973.8
"2024-03-28 04:16:00",4.8,3.8,8.0,0.0,973.7
"2024-03-28 04:17:00",4.8,3.8,8.0,0.0,973.8
"2024-03-28 04:18:00",4.8,3.8,8.0,0.0,973.8
"2024-03-28 04:19:00",4.8,3.8,8.0,0.0,973.9
"2024-03-28 04:20:00",4.8,3.8,8.0,0.0,973.9
"2024-03-28 04:21:00",4.7,3.7,8.0,0.0,973.9
"2024-03-28 04:22:00",4.7,3.7,8.0,0.0,973.9
"2024-03-28 04:23:00",4.7,3.7,8.0,0.0,974.0
"2024-03-28 04:24:00",4.7,3.7,8.0,0.0,974.0
"2024-03-28 04:25:00",4.7,3.7,8.0,0.0,974.0
"2024-03-28 04:26:00",4.6,3.6,8.0,0.0,974.1
"2024-03-28 04:27:00",4.6,3.6,8.0,0.0,974.0
"2024-03-28 04:28:00",4.6,3.6,8.0,0.0,974.0
"2024-03-28 04:29:00",4.5,3.5,8.0,0.0,974.0
"2024-03-28 04:30:00",4.5,3.5,8.0,0.0,974.0
"2024-03-28 04:31:00",4.5,3.5,8.0,0.0,974.1
"2024-03-28 04:32:00",4.4,3.4,8.0,0.0,974.1
"2024-03-28 04:33:00",4.4,3.4,8.0,0.0,974.1
"2024-03-28 04:34:00",4.4,3.4,8.0,0.0,974.1
"2024-03-28 04:35:00",4.4,3.4,8.0,0.0,974.1
"2024-03-28 04:36:00",4.4,3.4,8.0,0.0,974.1
"2024-03-28 04:37:00",4.3,3.3,8.0,0.0,974.2
"2024-03-28 04:38:00",4.3,3.3,8.0,0.0,974.1
"2024-03-28 04:39:00",4.3,3.3,8.0,0.0,974.1
"2024-03-28 04:40:00",4.3,3.3,8.0,0.0,974.1
"2024-03-28 04:41:00",4.3,3.3,8.0,0.0,974.2
"2024-03-28 04:42:00",4.3,3.3,8.0,0.0,974.1
"2024-03-28 04:43:00",4.3,3.3,8.0,0.0,974.2
"2024-03-28 04:44:00",4.2,3.2,8.0,0.0,974.2
"2024-03-28 04:45:00",4.2,3.2,8.0,0.0,974.2
"2024-03-28 04:46:00",4.2,3.2,8.0,0.0,974.2
"2024-03-28 04:47:00",4.2,3.2,8.0,0.0,974.3
"2024-03-28 04:48:00",4.2,3.2,8.0,0.0,974.3
"2024-03-28 04:49:00",4.2,3.2,8.0,0.0,974.3
"2024-03-28 04:50:00",4.1,3.1,8.0,0.0,974.3
"2024-03-28 04:51:00",4.1,3.1,8.0,0.0,974.4
"2024-03-28 04:52:00",4.1,3.1,8.0,0.0,974.4
"2024-03-28 04:53:00",4.1,3.1,8.0,0.0,974.4
"2024-03-28 04:54:00",4.1,3.1,8.0,0.0,974.4
"2024-03-28 04:55:00",4.1,3.1,8.0,0.0,974.4
"2024-03-28 04:56:00",4.0,3.0,8.0,0.0,974.4
"2024-03-28 04:57:00",4.0,3.0,8.0,0.0,974.4
"2024-03-28 04:58:00",4.0,2.8,8.0,0.0,974.4
"2024-03-28 04:59:00",3.9,2.9,8.0,0.0,974.4
"2024-03-28 05:00:00",3.9,2.7,8.0,0.0,974.4
"2024-03-28 05:01:00",3.9,2.7,8.0,0.0,974.4
"2024-03-28 05:02:00",3.9,2.7,8.0,0.0,974.4
"2024-03-28 05:03:00",3.9,2.7,8.0,0.0,974.4
"2024-03-28 05:04:00",3.8,2.6,8.0,0.0,974.3
"2024-03-28 05:05:00",3.8,2.8,8.0,0.0,974.4
"2024-03-28 05:06:00",3.8,2.6,8.0,0.0,974.4
"2024-03-28 05:07:00",3.8,2.8,8.0,0.0,974.4
"2024-03-28 05:08:00",3.8,2.8,8.0,0.0,974.4
"2024-03-28 05:09:00",3.8,2.8,8.0,0.0,974.4
"2024-03-28 05:10:00",3.7,2.7,8.0,0.0,974.4
"2024-03-28 05:11:00",3.7,2.7,8.0,0.0,974.5
"2024-03-28 05:12:00",3.7,2.7,8.0,0.0,974.4
"2024-03-28 05:13:00",3.7,2.7,8.0,0.0,974.5
"2024-03-28 05:14:00",3.7,2.7,8.0,0.0,974.5
"2024-03-28 05:15:00",3.6,2.6,8.0,0.0,974.5
"2024-03-28 05:16:00",3.6,2.6,8.0,0.0,974.6
"2024-03-28 05:17:00",3.6,2.6,8.0,0.0,974.5
"2024-03-28 05:18:00",3.6,2.4,8.0,0.0,974.6
"2024-03-28 05:19:00",3.6,2.4,8.0,0.0,974.6
"2024-03-28 05:20:00",3.6,2.4,8.0,0.0,974.6
"2024-03-28 05:21:00",3.6,2.4,8.0,0.0,974.6
"2024-03-28 05:22:00",3.5,2.3,8.0,0.0,974.6
"2024-03-28 05:23:00",3.5,2.3,8.0,0.0,974.6
"2024-03-28 05:24:00",3.5,2.3,8.0,0.0,974.6
"2024-03-28 05:25:00",3.4,2.2,8.0,0.0,974.7
"2024-03-28 05:26:00",3.4,2.2,8.0,0.0,974.8
"2024-03-28 05:27:00",3.4,2.2,8.0,0.0,974.8
"2024-03-28 05:28:00",3.4,2.4,8.0,0.0,974.9
"2024-03-28 05:29:00",3.4,2.4,8.0,0.0,974.9
"2024-03-28 05:30:00",3.4,2.4,8.0,0.0,974.9
"2024-03-28 05:31:00",3.3,2.3,8.0,0.0,974.9
"2024-03-28 05:32:00",3.3,2.3,8.0,0.0,974.9
"2024-03-28 05:33:00",3.3,2.3,8.0,0.0,975.0
"2024-03-28 05:34:00",3.3,2.3,8.0,0.0,975.0
"2024-03-28 05:35:00",3.3,2.3,8.0,0.0,974.9
"2024-03-28 05:36:00",3.3,2.3,8.0,0.0,975.0
"2024-03-28 05:37:00",3.3,2.3,8.0,0.0,974.9
"2024-03-28 05:38:00",3.3,2.3,8.0,0.0,975.0
"2024-03-28 05:39:00",3.2,2.2,8.0,0.0,975.0
"2024-03-28 05:40:00",3.2,2.0,8.0,0.0,974.9
"2024-03-28 05:41:00",3.2,2.0,8.0,0.0,975.0
"2024-03-28 05:42:00",3.2,2.0,8.0,0.0,975.0
"2024-03-28 05:43:00",3.2,2.0,8.0,0.0,975.0
"2024-03-28 05:44:00",3.2,2.2,8.0,0.0,975.0
"2024-03-28 05:45:00",3.2,2.2,8.0,0.0,975.0
"2024-03-28 05:46:00",3.2,2.2,8.0,0.0,975.1
"2024-03-28 05:47:00",3.2,2.2,8.0,0.0,975.1
"2024-03-28 05:48:00",3.2,2.2,8.0,0.0,975.1
"2024-03-28 05:49:00",3.2,2.2,8.0,0.0,975.1
"2024-03-28 05:50:00",3.2,2.2,8.0,0.0,975.2
"2024-03-28 05:51:00",3.1,2.1,8.2,0.0,975.3
"2024-03-28 05:52:00",3.1,2.1,8.2,0.0,975.3
"2024-03-28 05:53:00",3.1,2.1,8.2,0.0,975.2
"2024-03-28 05:54:00",3.1,2.1,8.2,0.0,975.3
"2024-03-28 05:55:00",3.1,2.1,8.2,0.0,975.2
"2024-03-28 05:56:00",3.1,2.1,8.2,0.0,975.2
"2024-03-28 05:57:00",3.1,2.1,8.2,0.0,975.2
"2024-03-28 05:58:00",3.1,2.1,8.2,0.0,975.2
"2024-03-28 05:59:00",3.1,2.1,8.2,0.0,975.3
"2024-03-28 06:00:00",3.1,2.1,8.2,0.0,975.3
"2024-03-28 06:01:00",3.1,2.1,8.2,0.0,975.3
"2024-03-28 06:02:00",3.1,2.1,8.2,0.0,975.3
"2024-03-28 06:03:00",3.1,2.1,8.2,0.0,975.4
"2024-03-28 06:04:00",3.1,2.1,8.2,0.0,975.3
"2024-03-28 06:05:00",3.1,2.1,8.2,0.0,975.3
"2024-03-28 06:06:00",3.1,2.1,8.2,0.0,975.3
"2024-03-28 06:07:00",3.1,2.1,8.2,0.0,975.3
"2024-03-28 06:08:00",3.1,2.1,8.2,0.0,975.3
"2024-03-28 06:09:00",3.1,2.1,8.2,0.0,975.3
"2024-03-28 06:10:00",3.1,2.1,8.2,0.0,975.3
"2024-03-28 06:11:00",3.1,2.1,8.2,0.0,975.3
"2024-03-28 06:12:00",3.1,2.1,8.2,0.0,975.4
"2024-03-28 06:13:00",3.1,2.1,8.2,0.0,975.4
"2024-03-28 06:14:00",3.1,2.1,8.2,0.0,975.4
"2024-03-28 06:15:00",3.1,2.1,8.2,0.0,975.5
"2024-03-28 06:16:00",3.1,2.1,8.2,0.0,975.5
"2024-03-28 06:17:00",3.1,2.1,8.2,0.0,975.4
"2024-03-28 06:18:00",3.1,2.1,8.2,0.0,975.3
"2024-03-28 06:19:00",3.1,2.1,8.2,0.0,975.3
"2024-03-28 06:20:00",3.1,2.1,8.4,0.0,975.3
"2024-03-28 06:21:00",3.1,2.1,8.4,0.0,975.3
"2024-03-28 06:22:00",3.1,2.1,8.4,0.0,975.4
"2024-03-28 06:23:00",3.1,2.1,8.4,0.0,975.5
"2024-03-28 06:24:00",3.1,2.1,8.4,0.0,975.5
"2024-03-28 06:25:00",3.2,2.2,8.4,0.0,975.6
"2024-03-28 06:26:00",3.1,2.1,8.4,0.0,975.6
"2024-03-28 06:27:00",3.1,2.1,8.4,0.0,975.7
"2024-03-28 06:28:00",3.1,2.1,8.4,0.0,975.7
"2024-03-28 06:29:00",3.1,2.1,8.4,0.0,975.7
"2024-03-28 06:30:00",3.2,2.2,8.4,0.0,975.7
"2024-03-28 06:31:00",3.1,2.1,8.4,0.0,975.8
"2024-03-28 06:32:00",3.2,2.2,8.4,0.0,975.8
"2024-03-28 06:33:00",3.2,2.2,8.4,0.0,975.8
"2024-03-28 06:34:00",3.2,2.2,8.4,0.0,975.8
"2024-03-28 06:35:00",3.2,2.3,8.4,0.0,975.9
"2024-03-28 06:36:00",3.2,2.3,8.4,0.0,975.9
"2024-03-28 06:37:00",3.2,2.3,8.4,0.0,975.9
"2024-03-28 06:38:00",3.2,2.3,8.4,0.0,975.9
"2024-03-28 06:39:00",3.2,2.3,8.4,0.0,975.9
"2024-03-28 06:40:00",3.2,2.3,8.4,0.0,975.8
"2024-03-28 06:41:00",3.3,2.4,8.4,0.0,975.8
"2024-03-28 06:42:00",3.3,2.4,8.4,0.0,975.8
"2024-03-28 06:43:00",3.3,2.4,8.4,0.0,975.8
"2024-03-28 06:44:00",3.3,2.4,8.4,0.0,975.8
"2024-03-28 06:45:00",3.3,2.4,8.4,0.0,975.7
"2024-03-28 06:46:00",3.4,2.5,8.4,0.0,975.7
"2024-03-28 06:47:00",3.4,2.5,8.4,0.0,975.7
"2024-03-28 06:48:00",3.4,2.5,8.4,0.0,975.7
"2024-03-28 06:49:00",3.4,2.5,8.4,0.0,975.7
"2024-03-28 06:50:00",3.4,2.5,8.4,0.0,975.7
"2024-03-28 06:51:00",3.4,2.5,8.4,0.0,975.8
"2024-03-28 06:52:00",3.5,2.6,8.4,0.0,975.8
"2024-03-28 06:53:00",3.5,2.6,8.4,0.0,975.8
"2024-03-28 06:54:00",3.6,2.7,8.4,0.0,975.8
"2024-03-28 06:55:00",3.6,2.7,8.4,0.0,975.8
"2024-03-28 06:56:00",3.6,2.7,8.4,0.0,975.8
"2024-03-28 06:57:00",3.6,2.7,8.4,0.0,975.8
"2024-03-28 06:58:00",3.6,2.7,8.4,0.0,975.8
"2024-03-28 06:59:00",3.6,2.7,8.4,0.0,975.8
"2024-03-28 07:00:00",3.6,2.7,8.4,0.0,975.8
"2024-03-28 07:01:00",3.6,2.7,8.4,0.0,975.9
"2024-03-28 07:02:00",3.7,2.8,8.4,0.0,975.9
"2024-03-28 07:03:00",3.7,2.8,8.4,0.0,975.9
"2024-03-28 07:04:00",3.6,2.7,8.4,0.0,975.9
"2024-03-28 07:05:00",3.7,2.8,8.4,0.0,975.9
"2024-03-28 07:06:00",3.7,2.8,8.4,0.0,975.9
"2024-03-28 07:07:00",3.7,2.8,8.4,0.0,975.9
"2024-03-28 07:08:00",3.7,2.8,8.4,0.0,975.9
"2024-03-28 07:09:00",3.7,2.8,8.4,0.0,975.9
"2024-03-28 07:10:00",3.7,2.8,8.4,0.0,975.9
"2024-03-28 07:11:00",3.7,2.8,8.4,0.0,976.0
"2024-03-28 07:12:00",3.8,2.9,8.4,0.0,976.0
"2024-03-28 07:13:00",3.7,2.8,8.4,0.0,976.0
"2024-03-28 07:14:00",3.8,2.9,8.4,0.0,975.9
"2024-03-28 07:15:00",3.8,2.9,8.4,0.0,975.9
"2024-03-28 07:16:00",3.8,2.9,8.4,0.0,975.9
"2024-03-28 07:17:00",3.9,3.2,8.4,0.0,976.0
"2024-03-28 07:18:00",4.1,3.4,8.4,0.0,976.0
"2024-03-28 07:19:00",4.2,3.5,8.4,0.0,976.0
"2024-03-28 07:20:00",4.2,3.5,8.4,0.0,975.9
"2024-03-28 07:21:00",4.3,3.6,8.4,0.0,976.0
"2024-03-28 07:22:00",4.4,3.7,8.4,0.0,975.9
"2024-03-28 07:23:00",4.4,3.7,8.4,0.0,975.9
"2024-03-28 07:24:00",4.6,3.9,8.4,0.0,975.9
"2024-03-28 07:25:00",4.6,3.9,8.4,0.0,976.0
"2024-03-28 07:26:00",4.6,3.9,8.4,0.0,975.9
"2024-03-28 07:27:00",4.7,4.0,8.4,0.0,975.9
"2024-03-28 07:28:00",4.7,4.0,8.4,0.0,975.9
"2024-03-28 07:29:00",4.8,4.1,8.4,0.0,975.9
"2024-03-28 07:30:00",4.8,4.1,8.4,0.0,976.0
"2024-03-28 07:31:00",4.9,4.2,8.4,0.0,976.0
"2024-03-28 07:32:00",4.9,4.2,8.4,0.0,976.0
"2024-03-28 07:33:00",4.9,4.2,8.4,0.0,976.1
"2024-03-28 07:34:00",5.0,4.3,8.4,0.0,976.1
"2024-03-28 07:35:00",5.1,4.4,8.4,0.0,976.1
"2024-03-28 07:36:00",5.1,4.4,8.4,0.0,976.2
"2024-03-28 07:37:00",5.1,4.4,8.4,0.0,976.2
"2024-03-28 07:38:00",5.2,4.5,8.4,0.0,976.2
"2024-03-28 07:39:00",5.2,4.5,8.4,0.0,976.3
"2024-03-28 07:40:00",5.2,4.5,8.4,0.0,976.3
"2024-03-28 07:41:00",5.3,4.6,8.4,0.0,976.3
"2024-03-28 07:42:00",5.3,4.6,8.4,0.0,976.2
"2024-03-28 07:43:00",5.4,4.7,8.4,0.0,976.3
"2024-03-28 07:44:00",5.4,4.7,8.4,0.0,976.2
"2024-03-28 07:45:00",5.4,4.7,8.4,0.0,976.3
"2024-03-28 07:46:00",5.5,4.8,8.4,0.0,976.3
"2024-03-28 07:47:00",5.4,4.7,8.4,0.0,976.3
"2024-03-28 07:48:00",5.4,4.7,8.4,0.0,976.3
"2024-03-28 07:49:00",5.4,4.7,8.4,0.0,976.3
"2024-03-28 07:50:00",5.5,4.8,8.4,0.0,976.3
"2024-03-28 07:51:00",5.4,4.7,8.4,0.0,976.3
"2024-03-28 07:52:00",5.4,4.7,8.4,0.0,976.3
"2024-03-28 07:53:00",5.4,4.7,8.4,0.0,976.3
"2024-03-28 07:54:00",5.4,4.7,8.4,0.0,976.2
"2024-03-28 07:55:00",5.4,4.7,8.4,0.0,976.3
"2024-03-28 07:56:00",5.4,4.7,8.4,0.0,976.3
"2024-03-28 07:57:00",5.4,4.7,8.4,0.0,976.2
"2024-03-28 07:58:00",5.4,4.7,8.4,0.0,976.3
"2024-03-28 07:59:00",5.3,4.6,8.4,0.0,976.3
"2024-03-28 08:00:00",5.3,4.6,8.4,0.0,976.3
"2024-03-28 08:01:00",5.3,4.6,8.4,0.5,976.3
"2024-03-28 08:02:00",5.3,4.4,8.4,0.0,976.3
"2024-03-28 08:03:00",5.3,4.4,8.4,0.0,976.3
"2024-03-28 08:04:00",5.4,4.7,8.4,0.0,976.2
"2024-03-28 08:05:00",5.5,4.8,8.4,0.0,976.3
"2024-03-28 08:06:00",5.6,4.9,8.4,0.0,976.3
"2024-03-28 08:07:00",5.6,4.9,8.4,0.0,976.2
"2024-03-28 08:08:00",5.7,5.0,8.4,0.0,976.3
"2024-03-28 08:09:00",5.8,4.9,8.4,0.0,976.3
"2024-03-28 08:10:00",5.9,5.2,8.4,0.5,976.2
"2024-03-28 08:11:00",6.1,5.4,8.4,0.6,976.2
"2024-03-28 08:12:00",6.1,5.2,8.4,0.6,976.2
"2024-03-28 08:13:00",6.1,5.2,8.4,0.0,976.2
"2024-03-28 08:14:00",6.1,5.2,8.4,0.0,976.2
"2024-03-28 08:15:00",6.1,5.2,8.4,0.0,976.2
"2024-03-28 08:16:00",6.0,5.1,8.4,0.0,976.1
"2024-03-28 08:17:00",5.9,4.9,8.4,0.0,976.1
"2024-03-28 08:18:00",5.9,4.9,8.4,0.0,976.2
"2024-03-28 08:19:00",5.9,4.9,8.4,0.5,976.1
"2024-03-28 08:20:00",6.0,5.0,8.4,0.6,976.1
"2024-03-28 08:21:00",5.9,4.9,8.4,0.7,976.1
"2024-03-28 08:22:00",6.0,5.0,8.4,0.7,976.0
"2024-03-28 08:23:00",6.1,5.1,8.4,0.7,976.1
"2024-03-28 08:24:00",6.2,5.2,8.4,0.7,976.1
"2024-03-28 08:25:00",6.3,5.3,8.4,0.8,976.1
"2024-03-28 08:26:00",6.4,5.4,8.4,0.8,976.1
"2024-03-28 08:27:00",6.6,5.5,8.4,0.8,976.1
"2024-03-28 08:28:00",6.6,5.5,8.4,0.9,976.1
"2024-03-28 08:29:00",6.7,5.5,8.4,0.8,976.1
"2024-03-28 08:30:00",6.8,5.7,8.4,0.8,976.1
"2024-03-28 08:31:00",6.9,5.8,8.4,0.8,976.1
"2024-03-28 08:32:00",6.9,5.7,8.4,0.6,976.1
"2024-03-28 08:33:00",7.1,5.9,8.4,0.9,976.1
"2024-03-28 08:34:00",7.2,6.1,8.4,0.9,976.1
"2024-03-28 08:35:00",7.3,6.2,8.4,0.9,976.1
"2024-03-28 08:36:00",7.2,6.0,8.4,0.9,976.1
"2024-03-28 08:37:00",7.2,6.0,8.4,0.5,976.1
"2024-03-28 08:38:00",7.2,5.8,8.4,0.6,976.1
"2024-03-28 08:39:00",7.2,5.8,8.4,0.7,976.1
"2024-03-28 08:40:00",7.2,5.8,8.4,0.0,976.0
"2024-03-28 08:41:00",7.2,6.0,8.4,0.0,976.0
"2024-03-28 08:42:00",7.2,5.8,8.4,0.5,976.1
"2024-03-28 08:43:00",7.1,5.7,8.4,0.6,976.1
"2024-03-28 08:44:00",7.1,5.9,8.4,0.6,976.1
"2024-03-28 08:45:00",7.1,5.7,8.4,0.5,976.1
"2024-03-28 08:46:00",7.1,5.7,8.4,0.0,976.1
"2024-03-28 08:47:00",7.1,5.7,8.4,0.6,976.1
"2024-03-28 08:48:00",7.1,5.7,8.4,0.0,976.2
"2024-03-28 08:49:00",7.1,5.9,8.4,0.6,976.2
"2024-03-28 08:50:00",7.0,5.6,8.4,0.6,976.2
"2024-03-28 08:51:00",6.9,5.7,8.4,0.5,976.2
"2024-03-28 08:52:00",7.1,5.9,8.4,0.6,976.3
"2024-03-28 08:53:00",7.1,5.9,8.4,0.6,976.3
"2024-03-28 08:54:00",7.0,5.8,8.4,1.0,976.3
"2024-03-28 08:55:00",7.1,5.9,8.4,0.6,976.3
"2024-03-28 08:56:00",7.1,5.9,8.4,0.6,976.3
"2024-03-28 08:57:00",7.1,5.9,8.4,0.6,976.3
"2024-03-28 08:58:00",7.2,6.0,8.4,0.6,976.3
"2024-03-28 08:59:00",7.2,6.0,8.4,0.6,976.3
"2024-03-28 09:00:00",7.4,6.2,8.4,1.3,976.4
"2024-03-28 09:01:00",7.4,6.3,8.4,1.1,976.4
"2024-03-28 09:02:00",7.6,6.4,8.4,0.8,976.4
"2024-03-28 09:03:00",7.7,6.5,8.4,1.0,976.4